星链-32699 (STARLINK-32699)

导读 | 星芒AI

STARLINK-32699 是 SpaceX 星链计划中的一颗低轨通信卫星,属于第 11 批发射的星链卫星群。该卫星于 2023 年 10 月 由猎鹰 9 号火箭送入近地轨道,旨在为全球提供高速互联网服务。它运行在约 550 公里的高度,采用先进的推进和通信技术,支持星间链路,提升网络覆盖与稳定性。星链计划最终目标是部署数万颗卫星,改善偏远地区网络接入,推动全球数字化发展。

基本信息
目录编号:
62482
目录名称:
STARLINK-32699
国际标识:
2024-254W
轨道中心:
EARTH
卫星名称:
星链-32699
卫星全名:
星链-32699 (STARLINK-32699)
卫星状态:
在轨 (已飞行311 天)
发射日期:
2024-12-31 UTC
国别 :
美国 (US)
星等 :
--
轨道信息
数据来源 国际轨道数据
星历时间: 2025-11-06T19:41:14+0800
1天前
查看轨道信息
半长轴: 6861.023km
偏心率: 0.0001545
轨道倾角: 42.998°
近地点辐角 188.983°
升交点赤经 355.367°
平近点角 171.100°
近地点: 481.827km
远地点: 483.949km
周期: 94.263分钟
每日圈数: 15.276345
详细信息
固有亮度:
5
最大亮度:
2.5
卫星平台:
Starlink V1.0
覆盖范围:
全球
运营商:
太空探索技术公司
运营商所在国:
美国
制造商(研发单位):
太空探索技术公司
制造商所在国:
美国
使用方式:
暂无
卫星简介
Starlink 计划是 SpaceX 推出的全球卫星互联网项目,通过发射低轨道卫星,为全球尤其是偏远地区提供高速、低延迟的互联网服务。自 2019 年起,Starlink 已部署数千颗卫星,旨在缩小全球数字鸿沟,推动互联网普及。该项目还为军事、航空等行业提供通信支持,带来广泛经济效益。
2D轨道图
3D轨道图
轨道高度分析图
轨道倾角分析图
轨道综合分析图
查看轨道综合分析图